Regional Weather Roundup
Issued by NWS

Home | Current Version | Previous Version | Graphics & Text | Print | Product List | Glossary On
Versions: 1 2 3 4 5 6 7 8 9 10 11 12 13 14 15 16 17 18 19 20 21 22 23 24 25 26 27 28 29 30 31 32 33 34 35 36 37 38 39 40 41 42 43 44 45 46 47 48 49 50
000
ASUS45 KBOI 172010
RWRID
WEATHER ROUNDUP FOR IDAHO
NATIONAL WEATHER SERVICE BOISE ID
100 PM MST WED DEC 17 2014

NOTE: "FAIR" INDICATES FEW OR NO CLOUDS BELOW 12000 FEET
WITH NO SIGNIFICANT WEATHER AND/OR OBSTRUCTIONS TO VISIBILITY

IDZ012-014-172100-
SOUTHWEST IDAHO


CITY           SKY/WX    TMP DP  RH WIND       PRES   REMARKS
BOISE          CLOUDY    45  32  60 VRB3      29.96S
CALDWELL       CLOUDY    45  30  57 E6        29.98F
MOUNTAIN HOME  SUNNY     42  32  68 SE20      29.96F
$$

IDZ016-017-172100-
SOUTHCENTRAL IDAHO


CITY           SKY/WX    TMP DP  RH WIND       PRES   REMARKS
BURLEY         SUNNY     40  30  67 NE8       29.96F WCI  34
JEROME         SUNNY     37  31  78 NE13      29.97F WCI  29
TWIN FALLS     SUNNY     40  31  70 NE7       29.96F
$$

IDZ019>023-172100-
SOUTHEAST IDAHO


CITY           SKY/WX    TMP DP  RH WIND       PRES   REMARKS
IDAHO FALLS    FOG       31  28  89 CALM      29.99F VSB 1/8
POCATELLO      PTSUNNY   35  33  92 VRB3      29.99F
REXBURG        MOSUNNY   34  30  85 CALM      29.99F
$$

IDZ006-010-011-018-031-032-172100-
CENTRAL IDAHO MOUNTAINS


CITY           SKY/WX    TMP DP  RH WIND       PRES   REMARKS
MCCALL         CLOUDY    34  28  79 CALM      29.92S
HAILEY         MOSUNNY   34  25  69 NW6       29.98F WCI  29
STANLEY          N/A     26  18  71 CALM      29.95F
SALMON         PTSUNNY   32  27  80 N5        29.98F WCI  27
CHALLIS        CLOUDY    28  22  78 N3        29.98F
$$

IDZ002-004-006-007-026-172100-
NORTHERN IDAHO


CITY           SKY/WX    TMP DP  RH WIND       PRES   REMARKS
LEWISTON       CLOUDY    42  34  73 NE6       29.92F
LOWELL           N/A     38  32  79 VRB3      29.99F
COEUR D`ALENE  CLOUDY    37  28  70 NE13      29.91F WCI  29
MULLAN PASS    MOSUNNY   29  27  92 S7        29.85S WCI  22
$$



USA.gov is the U.S. government's official web portal to all federal, state and local government web resources and services.